This is the latest recevied weather packets stored in our database for station/object NO9B. If no packets are shown the sender has not sent any weather packets the latest 10 day(s).
| Time | Temp. | Humidity | Pressure | Rain* | Wind** | Luminosity | Snow |
|---|---|---|---|---|---|---|---|
| 1788106748 | 28.33° C | 70% | 1014.5 hPa | 0 mm | - | 74 W/m² | - |
| 1788106449 | 27.78° C | 71% | 1014.4 hPa | 0 mm | - | 76 W/m² | - |
| 1788106149 | 27.78° C | 70% | 1014.4 hPa | 0 mm | - | 77 W/m² | - |
| 1788105845 | 27.78° C | 71% | 1014.5 hPa | 0 mm | - | 65 W/m² | - |
| 1788105539 | 27.78° C | 71% | 1014.5 hPa | 0 mm | - | 67 W/m² | - |
| 1788105236 | 27.22° C | 71% | 1014.5 hPa | 0 mm | - | 81 W/m² | - |
| 1788104931 | 27.22° C | 73% | 1014.6 hPa | 0 mm | - | 84 W/m² | - |
| 1788104627 | 26.67° C | 75% | 1014.7 hPa | 0 mm | - | 69 W/m² | - |
| 1788104323 | 26.67° C | 72% | 1014.7 hPa | 0 mm | - | 62 W/m² | - |
| 1788104018 | 26.67° C | 73% | 1014.7 hPa | 0 mm | - | 58 W/m² | - |
| 1788103717 | 26.11° C | 73% | 1014.6 hPa | 0 mm | - | 55 W/m² | - |
| 1788103412 | 26.11° C | 76% | 1014.5 hPa | 0 mm | - | 52 W/m² | - |
| 1788103112 | 26.11° C | 74% | 1014.5 hPa | 0 mm | - | 52 W/m² | - |
| 1788102811 | 25.56° C | 76% | 1014.4 hPa | 0 mm | - | 50 W/m² | - |
| 1788102507 | 25.56° C | 78% | 1014.7 hPa | 0 mm | - | 49 W/m² | - |
| 1788102206 | 25° C | 78% | 1014.7 hPa | 0 mm | - | 48 W/m² | - |
| 1788101901 | 25° C | 79% | 1014.4 hPa | 0 mm | - | 49 W/m² | - |
| 1788101596 | 25° C | 78% | 1014.7 hPa | 0 mm | - | 45 W/m² | - |
| 1788101291 | 24.44° C | 80% | 1014.5 hPa | 0 mm | - | 46 W/m² | - |
| 1788100987 | 24.44° C | 81% | 1014.4 hPa | 0 mm | - | 43 W/m² | - |
| 1788100683 | 24.44° C | 82% | 1014.6 hPa | 0 mm | - | 43 W/m² | - |
| 1788100382 | 23.89° C | 82% | 1014.4 hPa | 0 mm | - | 41 W/m² | - |
| 1788100077 | 23.89° C | 84% | 1014.5 hPa | 0 mm | - | 39 W/m² | - |
| 1788099772 | 23.33° C | 85% | 1014.7 hPa | 0 mm | - | 37 W/m² | - |
| 1788099467 | 23.33° C | 87% | 1014.7 hPa | 0 mm | - | 35 W/m² | - |
* Rain latest hour (hover to see other rain measurements)
** Current wind speed in m/s (hover to see current wind gust speed)